Weather reports worldwide

Advertisment
Lannion, France (7118): temperature & dewpoint: 12.01.2018 07:00:00 - 18.01.2018 07:00:00 (CET)Lannion, France (7118): wind speed & gusts: 12.01.2018 07:00:00 - 18.01.2018 07:00:00 (CET)Lannion, France (7118): wind direction: 12.01.2018 07:00:00 - 18.01.2018 07:00:00 (CET)Lannion, France (7118): reduced air pressure: 12.01.2018 07:00:00 - 18.01.2018 07:00:00 (CET)Lannion, France (7118): visibility: 12.01.2018 07:00:00 - 18.01.2018 07:00:00 (CET)Lannion, France (7118): precipitation: 12.01.2018 07:00:00 - 18.01.2018 07:00:00 (CET)
Date & Time tt [°C] td [°C] ff [km/h] ff [kn] fx [km/h] fx [kn] dd ppp [hPa] vv [km] rr [mm]
18.01.2018 07:00:00 - - - - - - - - - -
18.01.2018 06:00:00 11,2 10,6 41 22 77 42 WSW 1008,9 6 0,0
18.01.2018 05:00:00 10,9 10,3 44 24 68 37 WSW 1009,0 6 0,0
18.01.2018 04:00:00 10,5 9,9 41 22 75 40 WSW 1009,7 3,5 0,4
18.01.2018 03:00:00 10,3 9,7 42 23 73 39 WSW 1010,1 5 1,0
18.01.2018 02:00:00 10,4 8,8 44 24 78 42 SW 1010,8 5 0,0
18.01.2018 01:00:00 10,0 8,6 42 23 71 38 SW 1011,8 10 0,0
18.01.2018 00:00:00 9,8 7,6 41 22 69 37 SW 1012,6 10 0,0
17.01.2018 23:00:00 9,1 7,0 41 22 63 34 SW 1013,8 10 0,0
17.01.2018 22:00:00 8,6 6,2 37 20 59 32 SW 1014,7 10 0,0
17.01.2018 21:00:00 8,0 5,3 28 15 44 24 SW 1016,0 10 0,2
17.01.2018 20:00:00 7,6 4,9 26 14 45 25 WSW 1017,1 6 0,0
17.01.2018 19:00:00 7,7 4,5 29 16 44 24 WSW 1017,5 10 0,0
17.01.2018 18:00:00 7,7 4,6 29 16 53 29 WSW 1017,7 10 0,0
17.01.2018 17:00:00 7,6 4,9 34 18 58 31 W 1018,6 10 0,4
17.01.2018 16:00:00 7,6 5,1 26 14 59 32 WSW 1018,9 10 0,0
17.01.2018 15:00:00 8,2 5,7 29 16 55 30 W 1018,7 10 0,6
17.01.2018 14:00:00 8,6 3,2 31 17 57 31 W 1018,6 10 0,0
17.01.2018 13:00:00 8,3 4,1 31 17 50 27 W 1018,9 10 0,0
17.01.2018 12:00:00 6,7 3,3 36 19 61 33 W 1019,5 10 0,0
17.01.2018 11:00:00 7,7 2,8 34 18 61 33 W 1018,5 10 0,2
17.01.2018 10:00:00 7,4 1,5 34 18 58 31 W 1017,7 10 0,0
17.01.2018 09:00:00 7,1 1,4 34 18 53 29 WNW 1016,4 10 0,0
17.01.2018 08:00:00 4,8 2,2 24 13 62 33 WNW 1016,1 10 0,4
17.01.2018 07:00:00 5,2 2,7 37 20 75 40 WNW 1014,9 10 0,2
17.01.2018 06:00:00 5,5 1,6 41 22 82 45 W 1013,3 10 0,2
17.01.2018 05:00:00 5,9 2,9 42 23 98 53 WNW 1012,5 10 0,8
17.01.2018 04:00:00 6,5 1,0 57 31 87 47 W 1011,3 10 0,2
17.01.2018 03:00:00 6,5 1,2 48 26 81 44 W 1010,3 10 0,2
17.01.2018 02:00:00 4,5 1,7 50 27 78 42 WNW 1010,6 5 0,4
17.01.2018 01:00:00 6,4 0,7 44 24 81 44 W 1009,3 10 0,0
17.01.2018 00:00:00 7,0 2,1 46 25 96 52 W 1008,4 10 0,0
16.01.2018 23:00:00 6,2 3,7 44 24 94 51 W 1007,5 10 0,2
16.01.2018 22:00:00 6,9 2,6 48 26 98 53 W 1006,6 10 0,0
16.01.2018 21:00:00 6,8 2,9 42 23 90 49 W 1006,3 10 0,5
16.01.2018 20:00:00 6,2 3,0 52 28 103 55 W 1005,9 10 0,2
16.01.2018 19:00:00 6,6 4,9 46 25 88 48 W 1006,3 7 0,6
16.01.2018 18:00:00 6,3 5,3 41 22 96 52 W 1006,0 10 1,6
16.01.2018 17:00:00 7,7 5,0 42 23 83 45 W 1006,1 10 0,2
16.01.2018 16:00:00 7,8 5,6 45 24 84 45 W 1006,5 4,1 1,4
16.01.2018 15:00:00 8,7 5,1 39 21 61 33 W 1006,1 10 0,0
16.01.2018 14:00:00 7,9 5,0 36 20 74 40 W 1006,9 4,9 0,8
16.01.2018 13:00:00 9,9 4,5 46 25 88 47 W 1007,7 10 0,4
16.01.2018 12:00:00 10,5 4,8 46 25 79 42 W 1008,0 10 0,0
16.01.2018 11:00:00 10,2 4,8 46 25 72 39 W 1007,9 10 0,0
16.01.2018 10:00:00 9,7 5,7 46 25 74 40 W 1007,2 10 0,0
16.01.2018 09:00:00 9,6 5,9 42 23 67 36 W 1006,9 10 0,0
16.01.2018 08:00:00 9,0 7,1 34 18 67 36 W 1006,6 9 0,0
16.01.2018 07:00:00 9,9 6,8 35 19 74 40 W 1005,6 10 0,0
16.01.2018 06:00:00 9,5 7,1 44 24 84 45 W 1005,6 10 0,0
16.01.2018 05:00:00 10,3 8,2 44 24 66 36 WSW 1004,8 10 0,0
16.01.2018 04:00:00 10,0 7,8 41 22 67 36 WSW 1005,2 11 0,0
16.01.2018 03:00:00 9,9 8,5 39 21 59 32 WSW 1005,1 10 0,0
16.01.2018 02:00:00 9,5 8,6 29 16 61 33 W 1005,5 6 0,0
16.01.2018 01:00:00 10,1 7,3 35 19 56 31 WSW 1005,8 10 0,0
16.01.2018 00:00:00 9,6 8,2 35 19 58 31 W 1006,0 10 0,0
15.01.2018 23:00:00 9,6 8,5 35 19 64 35 WSW 1005,8 10 0,0
15.01.2018 22:00:00 10,0 6,9 31 17 73 39 W 1005,7 10 0,0
15.01.2018 21:00:00 9,8 8,7 35 19 58 31 WSW 1005,7 10 0,0
15.01.2018 20:00:00 9,7 8,6 34 18 59 32 WSW 1005,4 10 0,0
15.01.2018 19:00:00 10,2 8,5 34 18 58 32 W 1005,2 6 0,0
15.01.2018 18:00:00 9,5 8,6 41 22 62 33 W 1005,5 8 0,0
15.01.2018 17:00:00 10,5 8,4 39 21 67 36 W 1004,8 10 0,0
15.01.2018 16:00:00 10,5 8,9 44 24 73 40 W 1004,8 10 0,0
15.01.2018 15:00:00 10,7 9,1 35 19 55 30 W 1004,7 10 0,0
15.01.2018 14:00:00 10,8 10,2 35 19 67 36 WSW 1004,8 9 0,0
15.01.2018 13:00:00 11,0 10,4 42 23 72 39 W 1005,2 2,6 -
15.01.2018 12:00:00 11,2 10,6 39 21 59 32 WSW 1005,6 2,3 0,0
15.01.2018 11:00:00 10,7 10,1 29 16 67 36 SW 1005,8 3,3 0,0
15.01.2018 10:00:00 10,2 9,3 35 19 67 36 SSW 1006,6 4,9 0,0
15.01.2018 09:00:00 9,7 8,5 34 18 66 36 SSW 1007,8 10 0,0
15.01.2018 08:00:00 9,2 8,0 34 18 54 29 SSW 1009,2 10 0,0
15.01.2018 07:00:00 8,8 7,6 34 18 56 31 SSW 1010,1 10 0,0
15.01.2018 06:00:00 8,7 6,5 29 16 47 25 SSW 1011,4 13 0,0
15.01.2018 05:00:00 8,0 6,0 26 14 37 20 SSW 1013,1 10 0,0
15.01.2018 04:00:00 6,9 5,0 23 12 46 25 S 1014,6 14 0,0
15.01.2018 03:00:00 6,7 4,7 18 10 40 22 S 1015,7 10 0,0
15.01.2018 02:00:00 6,2 3,9 26 14 39 21 SSW 1017,0 10 0,0
15.01.2018 01:00:00 5,4 3,6 15 8 25 14 S 1017,5 10 0,0
15.01.2018 00:00:00 4,1 3,1 13 7 21 11 SSE 1018,3 7 0,0
14.01.2018 23:00:00 4,4 2,9 13 7 24 13 S 1019,0 8 0,0
14.01.2018 22:00:00 3,7 2,2 9 5 15 8 S 1019,4 9 0,0
14.01.2018 21:00:00 3,3 1,7 9 5 11 6 SSE 1019,5 7 0,0
14.01.2018 20:00:00 4,7 2,6 5 3 9 5 S 1019,2 10 0,0
14.01.2018 19:00:00 3,3 1,0 8 4 22 12 SW 1018,6 9 0,0
14.01.2018 18:00:00 4,8 2,0 4 2 9 5 S 1018,4 10 0,0
14.01.2018 17:00:00 6,2 3,0 5 3 15 8 W 1018,7 9 0,0
14.01.2018 16:00:00 6,7 3,3 4 2 12 7 W 1018,2 13 0,0
14.01.2018 15:00:00 6,9 2,6 0 0 6 3 N 1017,9 10 0,0
14.01.2018 14:00:00 7,1 2,8 0 0 8 4 N 1018,2 10 0,0
14.01.2018 13:00:00 6,6 3,0 4 2 13 7 - 1018,3 10 0,0
14.01.2018 12:00:00 6,2 4,2 5 3 13 7 - 1018,4 9 0,0
14.01.2018 11:00:00 5,0 4,4 5 3 9 5 ENE 1018,2 8 0,0
14.01.2018 10:00:00 3,6 3,2 2 1 5 3 WNW 1017,6 5 0,0
14.01.2018 09:00:00 2,6 2,0 4 2 4 2 SSW 1017,0 4,6 0,0
14.01.2018 08:00:00 2,1 1,5 0 0 6 4 N 1016,7 4,0 0,0
14.01.2018 07:00:00 2,1 1,5 0 0 3 2 N 1016,2 4,4 0,0
14.01.2018 06:00:00 1,3 0,7 4 2 5 3 WSW 1016,2 4,9 0,0
14.01.2018 05:00:00 0,9 0,2 0 0 6 3 N 1015,9 4,1 0,0
14.01.2018 04:00:00 1,7 0,5 4 2 8 4 E 1015,6 7 0,0
14.01.2018 03:00:00 3,0 1,8 4 2 8 4 ENE 1015,5 5 0,0
14.01.2018 02:00:00 3,9 2,6 4 2 11 6 - 1015,4 7 0,0
14.01.2018 01:00:00 4,0 2,7 9 5 13 7 ESE 1015,4 6 0,0
14.01.2018 00:00:00 4,3 3,0 8 4 16 9 E 1015,3 7 0,0
13.01.2018 23:00:00 4,3 3,3 8 4 16 9 E 1015,1 7 0,0
13.01.2018 22:00:00 4,6 3,3 9 5 18 10 E 1014,9 7 0,0
13.01.2018 21:00:00 4,7 3,4 11 6 19 10 E 1014,7 9 0,0
13.01.2018 20:00:00 4,8 3,5 8 4 14 7 E 1014,6 9 0,0
13.01.2018 19:00:00 4,9 3,4 4 2 11 6 - 1014,0 8 1,0
13.01.2018 18:00:00 5,4 3,2 9 5 16 9 ESE 1014,2 8 0,2
13.01.2018 17:00:00 5,5 3,2 6 4 20 11 ESE 1013,8 16 0,0
13.01.2018 16:00:00 5,9 3,1 15 8 29 15 SE 1013,7 10 0,0
13.01.2018 15:00:00 6,2 2,8 22 12 31 17 SE 1013,4 10 0,0
13.01.2018 14:00:00 6,4 3,4 16 9 26 14 ESE 1013,9 10 0,0
13.01.2018 13:00:00 6,1 3,4 17 9 35 19 SE 1014,7 20 0,0
13.01.2018 12:00:00 5,6 3,3 21 11 34 18 SE 1015,3 10 0,0
13.01.2018 11:00:00 5,6 3,3 18 10 29 15 ESE 1015,3 10 0,0
13.01.2018 10:00:00 5,5 3,8 18 10 34 18 SE 1015,2 10 0,0
13.01.2018 09:00:00 5,7 3,9 21 11 35 19 SE 1015,4 10 0,0
13.01.2018 08:00:00 5,3 3,5 18 10 32 18 SE 1015,5 10 0,0
13.01.2018 07:00:00 5,1 3,1 16 9 38 20 SE 1015,5 10 0,0
13.01.2018 06:00:00 5,0 3,0 22 12 36 19 SE 1015,6 10 0,0
13.01.2018 05:00:00 4,7 2,7 24 13 46 25 SE 1016,5 10 0,0
13.01.2018 04:00:00 4,6 2,5 26 14 42 23 SE 1017,2 10 0,0
13.01.2018 03:00:00 4,8 2,5 28 15 48 26 SE 1018,1 10 0,0
13.01.2018 02:00:00 5,1 2,8 28 15 48 26 SE 1019,0 10 0,0
13.01.2018 01:00:00 5,0 2,9 32 18 51 28 SE 1019,5 14 0,0
13.01.2018 00:00:00 4,0 2,3 24 13 38 20 SE 1019,9 10 0,0
12.01.2018 23:00:00 4,4 2,3 26 14 46 25 SE 1020,7 11 0,0
12.01.2018 22:00:00 4,6 2,6 28 15 42 23 SE 1021,5 10 0,0
12.01.2018 21:00:00 4,5 2,7 21 11 39 21 SE 1022,4 9 0,0
12.01.2018 20:00:00 4,5 3,2 21 11 29 16 SSE 1022,5 7 0,0
12.01.2018 19:00:00 4,2 2,9 16 9 28 15 SE 1022,8 7 0,0
12.01.2018 18:00:00 4,3 2,5 21 11 31 17 SSE 1023,2 9 0,0
12.01.2018 17:00:00 5,5 2,8 16 9 25 14 SE 1023,0 10 0,0
12.01.2018 16:00:00 6,9 3,0 11 6 21 11 SE 1023,4 10 0,0
12.01.2018 15:00:00 7,4 3,6 11 6 21 11 SE 1023,9 10 0,0
12.01.2018 14:00:00 7,6 3,1 15 8 26 14 SSE 1024,2 10 0,0
12.01.2018 13:00:00 7,5 3,5 18 10 28 15 SSE 1024,9 10 0,0
12.01.2018 12:00:00 5,8 3,6 9 5 14 8 SSE 1026,3 8 0,2
12.01.2018 11:00:00 2,5 2,2 5 3 10 5 SSE 1026,6 5 0,0
12.01.2018 10:00:00 -0,2 -0,8 5 3 9 5 ESE 1026,6 4,6 0,0
12.01.2018 09:00:00 0,1 -0,3 5 3 9 5 SE 1026,4 4,9 0,0
12.01.2018 08:00:00 0,2 -0,4 8 4 11 6 SE 1026,3 6 0,0
12.01.2018 07:00:00 0,4 -0,2 8 4 9 5 SE 1025,9 4,6 0,0

tt = temperature
td = dewpoint
ff = wind speed
fx = gusts
dd = wind direction
ppp = reduced air pressure
vv = visibility
rr = precipitation

Next stations